Torna al catalogo

DELTA 1 DEB

AttivoSSO
NORAD 12206·DEBRIS·🇺🇸 United States

Lanciato Mar 5, 1978 da Vandenberg Space Force Base

Loading…

Prossimi Passaggi (prossime 24 ore)

TLE

AggiornatoSource: Space-Track

Epoca: Sep 14, 2026, 06:03 UTC

1 12206U 78026AX  26257.25220043  .00001043  00000-0  61339-3 0  9997
2 12206  99.0032  11.1051 0158279 201.1174 158.3410 14.04188944313487

Traccia DELTA 1 DEB in tempo reale con AllMySat

Download on the App Store